User: anonymous   Login
Location: Trebic
(49.2170°N, 15.8830°E)
Time: 12:17:25
(UTC+02:00)
Language:

Tiros 1 despin weight - Orbit

View from above orbital plane
View from above orbital plane
View from above satellite
View from above satellite

Ground track
Ground track

The orbit data is extracted from the following two-line orbital elements,

1   115U 60002D   19199.85476587 -.00000136  00000-0  10867-4 0  9991
2   115  48.1673  83.0261 0034565 215.0380 144.8258 14.83454660163294
Epoch (UTC): 18 July 2019 20:30:51
Eccentricity: 0.0034565
inclination: 48.1673°
perigee height: 594 km
apogee height: 642 km
right ascension of ascending node: 83.0261°
argument of perigee: 215.0380°
revolutions per day: 14.83454660
mean anomaly at epoch: 144.8258°
orbit number at epoch: 16329

The dashed part of the orbit path shows where the satellite is in the earth's shadow,  

DLR